sat.trackr.live / text

‹ back to catalog

STARLINK-30848

NORAD 58240 · 2023-171L

PAYLOAD ACTIVE UNKNOWN

§ Identity

Operator
Country
US
Launch date
2023-11-08
Launch site
AFETR
Launch vehicle
Mass (kg)
RCS (m²)

Purposes: comms

External: N2YO · Heavens-Above · Gunter

§ Orbital elements

Epoch: 2026-05-25T04:21:02.610144Z

Period
94.27 min
Inclination
43.0032°
Eccentricity
0.0001693
Mean motion
15.27577869 rev/d
Perigee alt
481.9 km
Apogee alt
484.2 km
Semi-major
6,861.2 km
B*
2.9940e-5
RAAN
213.1721°
Arg perigee
267.5542°
Mean anomaly
92.5116°
Rev number
14,143

§ Raw data

STARLINK-308481 58240U 23171L   26145.18128021  .00000562  00000+0  29940-4 0  99942 58240  43.0032 213.1721 0001693 267.5542  92.5116 15.27577869141434

JSON: /api/v1/satellites/58240 · /tle

For live sub-satellite position, see the globe view (requires WebGL).

§ Visibility from observer

Set your observer location to see the next 7 days of passes ≥ 10°. The values pass through the URL so the page stays shareable.

No JS? Fill the form by hand. The geolocation button needs JavaScript.